Voltar ao catálogo

CZ-11 R/B

AtivoSSO
NORAD 43161·ROCKET BODY·🇨🇳 China

Lançado Jan 19, 2018 de Jiuquan Satellite Launch Center

Loading…

Próximas Passagens (próximas 24 horas)

TLE

AtualizadoSource: Space-Track

Época: Sep 14, 2026, 22:02 UTC

1 43161U 18008G   26257.91854255  .00000274  00000-0  59022-4 0  9998
2 43161  98.2535 238.8525 0361689 181.5113 178.5011 14.32528818451516

Acompanhe CZ-11 R/B em tempo real com AllMySat

Download on the App Store